Powrót do katalogu

ATLAS 5 CENTAUR DEB

LostHEO
NORAD 44695·DEBRIS·🇺🇸 United States

Wystrzelony Oct 17, 2018 z Cape Canaveral Space Force Station

Loading…

Następne Przeloty (najbliższe 24 godziny)

TLE

NieaktualneSource: Space-Track

Epoka: Nov 4, 2019, 01:08 UTC

1 44695U 18079BH  19308.04770846 -.00000083  00000-0  00000+0 0  9991
2 44695  11.6228 254.4649 4497117 256.6279  51.0023  1.73139357  3681

Śledź ATLAS 5 CENTAUR DEB w czasie rzeczywistym z AllMySat

Download on the App Store